This is the latest recevied weather packets stored in our database for station/object W3AJR. If no packets are shown the sender has not sent any weather packets the latest 10 day(s).
| Time | Temp. | Humidity | Pressure | Rain* | Wind** | Luminosity | Snow |
|---|---|---|---|---|---|---|---|
| 1778166266 | 12.78° C | 68% | 1011.8 hPa | 0 mm | - | 117 W/m² | - |
| 1778165963 | 12.78° C | 67% | 1011.9 hPa | 0 mm | - | 137 W/m² | - |
| 1778165658 | 12.78° C | 67% | 1011.9 hPa | 0 mm | - | 80 W/m² | - |
| 1778165355 | 12.78° C | 70% | 1011.9 hPa | 0 mm | - | 126 W/m² | - |
| 1778165053 | 12.78° C | 69% | 1012.2 hPa | 0 mm | - | 109 W/m² | - |
| 1778164749 | 12.22° C | 69% | 1012.2 hPa | 0 mm | - | 153 W/m² | - |
| 1778164447 | 12.22° C | 70% | 1012.3 hPa | 0 mm | - | 130 W/m² | - |
| 1778164143 | 12.22° C | 72% | 1012.2 hPa | 0 mm | - | 124 W/m² | - |
| 1778163839 | 12.22° C | 72% | 1012.3 hPa | 0 mm | - | 123 W/m² | - |
| 1778163536 | 12.22° C | 73% | 1012.2 hPa | 0 mm | - | 105 W/m² | - |
| 1778163233 | 12.22° C | 74% | 1012.7 hPa | 0 mm | - | 101 W/m² | - |
| 1778162929 | 12.22° C | 73% | 1012.6 hPa | 0 mm | - | 66 W/m² | - |
| 1778162626 | 12.22° C | 72% | 1012.6 hPa | 0 mm | - | 56 W/m² | - |
| 1778162324 | 12.22° C | 73% | 1012.7 hPa | 0 mm | - | 83 W/m² | - |
| 1778162020 | 12.22° C | 73% | 1012.4 hPa | 0 mm | - | 92 W/m² | - |
| 1778161718 | 12.22° C | 73% | 1012.4 hPa | 0 mm | - | 109 W/m² | - |
| 1778161414 | 12.22° C | 73% | 1012.6 hPa | 0 mm | - | 89 W/m² | - |
| 1778161110 | 12.22° C | 74% | 1012.7 hPa | 0 mm | - | 98 W/m² | - |
| 1778160805 | 12.22° C | 75% | 1012.6 hPa | 0 mm | - | 78 W/m² | - |
| 1778160505 | 12.22° C | 75% | 1012.4 hPa | 0 mm | - | 75 W/m² | - |
| 1778160200 | 12.22° C | 76% | 1012.4 hPa | 0 mm | - | 63 W/m² | - |
| 1778159898 | 12.22° C | 75% | 1012.6 hPa | 0 mm | - | 77 W/m² | - |
| 1778159594 | 12.22° C | 78% | 1012.6 hPa | 0 mm | - | 59 W/m² | - |
| 1778159291 | 12.22° C | 78% | 1012.2 hPa | 0 mm | - | 85 W/m² | - |
| 1778158989 | 12.22° C | 79% | 1012.4 hPa | 0 mm | - | 77 W/m² | - |
* Rain latest hour (hover to see other rain measurements)
** Current wind speed in m/s (hover to see current wind gust speed)